MDT,Max TemperatureF,Mean TemperatureF,Min TemperatureF,Max Dew PointF,MeanDew PointF,Min DewpointF,Max Humidity, Mean Humidity, Min Humidity, Max Sea Level PressureIn, Mean Sea Level PressureIn, Min Sea Level PressureIn, Max VisibilityMiles, Mean VisibilityMiles, Min VisibilityMiles, Max Wind SpeedMPH, Mean Wind SpeedMPH, Max Gust SpeedMPH,PrecipitationIn, CloudCover, Events, WindDirDegrees
2013-7-1,96,76,56,66,58,50,93,58,23,30.10,30.04,29.96,10,10,10,10,3,,0.00,0,,352
2013-7-2,94,75,56,66,59,54,90,61,32,30.02,29.96,29.84,10,10,10,13,3,16,0.00,0,,181
2013-7-3,91,74,57,62,54,46,93,58,23,29.90,29.87,29.83,10,10,10,17,7,24,0.00,0,,248
2013-7-4,88,69,50,55,48,40,89,55,21,29.90,29.82,29.71,10,10,10,17,6,23,0.00,1,,211
2013-7-5,84,66,47,50,46,41,86,54,22,29.83,29.78,29.69,10,10,8,17,4,24,0.00,1,,182
2013-7-6,80,62,44,53,46,41,89,58,27,29.91,29.86,29.80,10,10,10,10,2,20,T,0,,144
2013-7-7,84,70,55,55,47,43,80,52,24,29.91,29.84,29.78,10,10,10,16,7,22,0.00,1,,18
2013-7-8,79,64,49,57,51,42,100,67,33,30.09,29.93,29.82,10,10,2,28,5,38,0.30,2,Rain-Thunderstorm,183
2013-7-9,81,62,43,55,49,44,100,64,28,30.21,30.12,30.02,10,10,10,12,2,17,0.00,0,,179
2013-7-10,88,67,46,58,49,46,93,59,24,30.04,29.91,29.72,10,10,10,13,4,20,0.00,0,,162
2013-7-11,83,69,54,57,44,33,80,49,18,29.79,29.75,29.72,10,10,10,23,8,30,T,2,Rain,248
2013-7-12,78,59,39,44,37,27,82,51,19,29.89,29.85,29.79,10,10,10,23,4,26,0.00,1,,340
2013-7-13,79,63,47,47,39,31,77,47,17,30.09,30.02,29.89,10,10,10,22,4,28,0.00,2,,247
2013-7-14,83,64,44,45,41,36,83,51,18,30.12,30.04,29.91,10,10,10,15,4,18,0.00,0,,168
2013-7-15,87,63,39,46,40,29,93,53,12,29.96,29.92,29.86,10,10,10,29,7,38,0.00,0,,271
2013-7-16,87,73,59,47,44,39,52,39,25,30.09,30.01,29.92,10,10,10,26,13,35,0.00,0,,27
2013-7-17,89,74,58,64,50,41,69,45,21,30.04,29.97,29.91,10,10,10,23,7,35,0.01,1,,337
2013-7-18,89,70,51,54,48,42,89,55,21,30.11,30.06,30.00,10,10,10,12,2,16,0.00,1,,270
2013-7-19,90,68,46,51,45,39,86,52,17,30.07,30.01,29.91,10,10,10,13,2,18,0.00,0,,203
2013-7-20,92,70,47,48,43,38,93,54,15,29.96,29.86,29.75,10,10,10,14,4,21,0.00,0,,257
2013-7-21,93,68,43,47,40,28,92,51,10,29.83,29.79,29.72,10,10,10,14,5,21,0.00,0,,219
2013-7-22,93,69,45,48,42,33,82,48,13,29.91,29.83,29.78,10,10,10,18,5,23,0.00,0,,208
2013-7-23,92,70,47,51,45,40,86,51,16,30.02,29.96,29.89,10,10,10,13,4,16,0.00,0,,155
2013-7-24,93,71,49,49,44,37,77,46,15,30.02,29.95,29.88,10,10,10,18,6,18,0.00,0,,347
2013-7-25,92,75,58,53,47,42,65,42,18,30.05,29.99,29.92,10,10,10,20,5,26,0.00,0,,31
2013-7-26,94,71,47,51,42,29,93,52,10,30.07,29.99,29.88,10,10,10,13,4,22,0.00,0,,158
2013-7-27,90,66,42,46,38,28,83,48,12,29.93,29.87,29.81,10,10,10,20,5,25,0.00,0,,226
2013-7-28,85,64,43,45,39,35,83,50,17,29.87,29.82,29.76,10,10,10,26,6,72,T,1,,4
2013-7-29,80,70,59,47,44,42,52,40,28,29.95,29.90,29.86,10,10,10,21,11,37,0.00,1,,31
2013-7-30,83,68,52,52,46,42,77,52,26,30.12,30.05,29.96,10,10,10,20,6,24,0.00,0,,9
2013-7-31,88,68,48,47,43,33,86,51,15,30.20,30.08,29.95,10,9,6,7,3,,T,1,Rain,347